This demonstration page uses our WeatherBlox Daily Observations layout. Learn more.

Left ArrowRight Arrow

Hourly Observations for January 20, 2016

Temp ( °F °C ) Dew Point ( °F °C ) Humidity (%) Winds ( mph kmh ) Pressure ( in mb ) Visibility ( mi km ) Precip ( " mm )
12:53 am 00:53 Clear 41 5 30 -1.1 65 65 SE 3 6 30.12 1020 10 16 0.00 0.00
1:53 am 01:53 Clear 40 4.4 30 -1.1 68 68 ESE 5 7 30.11 1020 10 16 0.00 0.00
2:53 am 02:53 Clear 34 1.1 28 -2.2 79 79 NE 6 9 30.11 1020 10 16 0.00 0.00
3:53 am 03:53 Clear 34 1.1 29 -1.7 82 82 NNE 6 9 30.11 1020 10 16 0.00 0.00
4:53 am 04:53 Clear 32 0 27 -2.8 82 82 N 6 9 30.09 1019 10 16 0.00 0.00
5:53 am 05:53 Clear 33 0.6 29 -1.7 85 85 NNE 5 7 30.08 1019 10 16 0.00 0.00
6:53 am 06:53 Clear 34 1.1 30 -1.1 85 85 N 5 7 30.09 1019 10 16 0.00 0.00
7:53 am 07:53 Sunny 36 2.2 31 -0.6 82 82 ESE 3 6 30.07 1018 10 16 0.00 0.00
8:53 am 08:53 Sunny 38 3.3 32 0 79 79 SSE 6 9 30.07 1018 10 16 0.00 0.00
9:53 am 09:53 Sunny 42 5.6 33 0.6 71 71 SSE 13 20 30.03 1017 10 16 0.00 0.00
10:53 am 10:53 Sunny 47 8.3 34 1.1 61 61 SSE 10 17 30.06 1018 10 16 0.00 0.00
11:53 am 11:53 Sunny 52 11.1 34 1.1 50 50 SSW 6 9 30.03 1017 10 16 0.00 0.00
12:53 pm 12:53 Sunny 57 13.9 33 0.6 41 41 S 5 7 29.98 1015 10 16 0.00 0.00
1:53 pm 13:53 Sunny 63 17.2 31 -0.6 30 30 WSW 9 15 29.92 1013 10 16 0.00 0.00
2:53 pm 14:53 Sunny 68 20 28 -2.2 22 22 W 12 19 29.88 1012 10 16 0.00 0.00
3:53 pm 15:53 Sunny 71 21.7 26 -3.3 19 19 W 12 19 29.84 1010 10 16 0.00 0.00
4:53 pm 16:53 Sunny 72 22.2 24 -4.4 17 17 W 12 19 29.83 1010 10 16 0.00 0.00
5:53 pm 17:53 Sunny 68 20 21 -6.1 17 17 W 12 19 29.85 1011 10 16 0.00 0.00
6:53 pm 18:53 Clear 58 14.4 22 -5.6 25 25 W 9 15 29.87 1012 10 16 0.00 0.00
7:53 pm 19:53 Clear 52 11.1 23 -5 32 32 SW 10 17 29.89 1012 10 16 0.00 0.00
8:53 pm 20:53 Clear 51 10.6 24 -4.4 35 35 WSW 9 15 29.88 1012 10 16 0.00 0.00
9:53 pm 21:53 Clear 47 8.3 25 -3.9 42 42 WSW 10 17 29.88 1012 10 16 0.00 0.00
10:53 pm 22:53 Clear 46 7.8 25 -3.9 44 44 SW 9 15 29.86 1011 10 16 0.00 0.00
11:53 pm 23:53 Clear 47 8.3 25 -3.9 42 42 WSW 10 17 29.85 1011 10 16 0.00 0.00

Powered by AerisWeather